Aiken, SC

10:56 PM EDT on July 25, 2017 (GMT -0400)
Aiken Municipal

Weather History for KAIK - March, 2014

Change the Weather History Date:

Friday, March 14, 2014

  Actual Average Record
Temperature  
Mean Temperature 46 °F -  
Max Temperature 64 °F 71 °F 82 °F (2012)
Min Temperature 28 °F 41 °F 28 °F (2014)
Degree Days  
Heating Degree Days 19    
Moisture  
Dew Point 30 °F    
Average Humidity 59    
Maximum Humidity 100    
Minimum Humidity 29    
Precipitation  
Precipitation 0.00 in - - ()
Sea Level Pressure  
Sea Level Pressure 30.26 in    
Wind  
Wind Speed 3 mph (South)    
Max Wind Speed 16 mph    
Max Gust Speed 23 mph    
Visibility 10 miles    
Events      
Averages and records for this station are not official NWS values.
T = Trace of Precipitation, MM = Missing Value Source: NWS Daily Summary

Daily Weather History Graph

Daily Weather History Graph

Search for Another Location

Airport or City:

Trip Planner

Search our weather history database for the weather conditions in past years. The results will help you decide how hot, cold, wet, or windy it might be!

Date:

Astronomy

Mar. 14, 2014 Rise Set
Actual Time 7:38 AM EDT 7:33 PM EDT
Civil Twilight 7:13 AM EDT 7:58 PM EDT
Nautical Twilight 6:44 AM EDT 8:27 PM EDT
Astronomical Twilight 6:15 AM EDT 8:56 PM EDT
Moon 5:57 PM EDT (3/14) 6:13 AM EDT (3/14)
Length of Visible Light 12h 44m
Length of Day
11h 55m
Waxing Gibbous, 96% of the Moon is Illuminated
Mar 14
Waxing Gibbous
Mar 16
Full
Mar 23
Last Quarter
Mar 30
New
Apr 7
First Quarter

Hourly Weather History & Observations

Time (EDT) Temp. Windchill Dew Point Humidity Pressure Visibility Wind Dir Wind Speed Gust Speed Precip Events Conditions
12:15 AM 33.8 °F - 30.2 °F 87% 30.26 in 10.0 mi Calm Calm - N/A   Clear
12:35 AM 33.8 °F - 30.2 °F 87% 30.26 in 10.0 mi Calm Calm - N/A   Clear
12:55 AM 32.0 °F - 30.2 °F 93% 30.27 in 10.0 mi Calm Calm - N/A   Clear
1:15 AM 32.0 °F - 30.2 °F 93% 30.27 in 10.0 mi Calm Calm - N/A   Clear
1:35 AM 32.0 °F - 30.2 °F 93% 30.27 in 10.0 mi Calm Calm - N/A   Clear
1:55 AM 32.0 °F - 30.2 °F 93% 30.28 in 10.0 mi Calm Calm - N/A   Clear
2:15 AM 32.0 °F - 30.2 °F 93% 30.28 in 10.0 mi Calm Calm - N/A   Clear
2:35 AM 32.0 °F - 28.4 °F 87% 30.28 in 10.0 mi Calm Calm - N/A   Clear
2:55 AM 32.0 °F - 30.2 °F 93% 30.28 in 10.0 mi Calm Calm - N/A   Clear
3:15 AM 32.0 °F - 28.4 °F 87% 30.28 in 10.0 mi Calm Calm - N/A   Clear
3:35 AM 30.2 °F - 28.4 °F 93% 30.28 in 10.0 mi Calm Calm - N/A   Clear
3:55 AM 30.2 °F - 28.4 °F 93% 30.28 in 10.0 mi Calm Calm - N/A   Clear
4:15 AM 30.2 °F - 28.4 °F 93% 30.28 in 10.0 mi Calm Calm - N/A   Clear
4:35 AM 30.2 °F - 28.4 °F 93% 30.28 in 10.0 mi Calm Calm - N/A   Clear
4:55 AM 30.2 °F - 28.4 °F 93% 30.28 in 10.0 mi Calm Calm - N/A   Clear
5:15 AM 28.4 °F - 28.4 °F 100% 30.28 in 10.0 mi Calm Calm - N/A   Clear
5:35 AM 30.2 °F - 28.4 °F 93% 30.29 in 10.0 mi Calm Calm - N/A   Clear
5:55 AM 28.4 °F - 28.4 °F 100% 30.29 in 10.0 mi Calm Calm - N/A   Clear
6:15 AM 28.4 °F - 26.6 °F 93% 30.29 in 10.0 mi Calm Calm - N/A   Clear
6:35 AM 28.4 °F - 26.6 °F 93% 30.30 in 10.0 mi Calm Calm - N/A   Clear
6:55 AM 28.4 °F - 26.6 °F 93% 30.30 in 10.0 mi Calm Calm - N/A   Clear
7:15 AM 30.2 °F - 28.4 °F 93% 30.31 in 10.0 mi Calm Calm - N/A   Clear
7:35 AM 28.4 °F - 26.6 °F 93% 30.31 in 10.0 mi Calm Calm - N/A   Clear
7:55 AM 28.4 °F - 26.6 °F 93% 30.31 in 10.0 mi Calm Calm - N/A   Clear
8:15 AM 30.2 °F - 28.4 °F 93% 30.32 in 10.0 mi Calm Calm - N/A   Clear
8:35 AM 32.0 °F - 30.2 °F 93% 30.33 in 10.0 mi Calm Calm - N/A   Clear
8:55 AM 35.6 °F - 30.2 °F 81% 30.33 in 10.0 mi Calm Calm - N/A   Clear
9:15 AM 41.0 °F 38.0 °F 28.4 °F 61% 30.34 in 10.0 mi SSE 4.6 mph - N/A   Clear
9:35 AM 42.8 °F 38.6 °F 28.4 °F 57% 30.34 in 10.0 mi SE 6.9 mph - N/A   Clear
9:55 AM 44.6 °F 39.7 °F 28.4 °F 53% 30.34 in 10.0 mi SE 9.2 mph - N/A   Clear
10:15 AM 50.0 °F - 28.4 °F 43% 30.35 in 10.0 mi SSE 8.1 mph - N/A   Clear
10:35 AM 51.8 °F - 30.2 °F 44% 30.35 in 10.0 mi SSE 8.1 mph - N/A   Clear
10:55 AM 53.6 °F - 30.2 °F 41% 30.35 in 10.0 mi SSE 8.1 mph - N/A   Clear
11:15 AM 53.6 °F - 28.4 °F 38% 30.35 in 10.0 mi SSE 10.4 mph - N/A   Clear
11:35 AM 55.4 °F - 30.2 °F 38% 30.36 in 10.0 mi South 10.4 mph - N/A   Clear
11:55 AM 57.2 °F - 28.4 °F 33% 30.36 in 10.0 mi South 10.4 mph - N/A   Clear
12:15 PM 59.0 °F - 30.2 °F 34% 30.35 in 10.0 mi SSW 9.2 mph 16.1 mph N/A   Clear
12:35 PM 59.0 °F - 28.4 °F 31% 30.35 in 10.0 mi SSW 12.7 mph - N/A   Clear
12:55 PM 59.0 °F - 28.4 °F 31% 30.34 in 10.0 mi South 6.9 mph 11.5 mph N/A   Clear
1:15 PM 60.8 °F - 30.2 °F 31% 30.33 in 10.0 mi SSW 9.2 mph - N/A   Clear
1:35 PM 60.8 °F - 28.4 °F 29% 30.32 in 10.0 mi South 9.2 mph 17.3 mph N/A   Clear
1:55 PM 60.8 °F - 30.2 °F 31% 30.31 in 10.0 mi SSW 9.2 mph 20.7 mph N/A   Clear
2:15 PM 60.8 °F - 30.2 °F 31% 30.29 in 10.0 mi South 12.7 mph 17.3 mph N/A   Clear
2:35 PM 62.6 °F - 32.0 °F 32% 30.28 in 10.0 mi SSW 15.0 mph - N/A   Clear
2:55 PM 62.6 °F - 30.2 °F 30% 30.26 in 10.0 mi South 9.2 mph 16.1 mph N/A   Clear
3:15 PM 62.6 °F - 32.0 °F 32% 30.25 in 10.0 mi South 6.9 mph 16.1 mph N/A   Clear
3:35 PM 64.4 °F - 32.0 °F 30% 30.24 in 10.0 mi South 5.8 mph 23.0 mph N/A   Clear
3:55 PM 64.4 °F - 32.0 °F 30% 30.23 in 10.0 mi South 12.7 mph 18.4 mph N/A   Clear
4:15 PM 64.4 °F - 32.0 °F 30% 30.22 in 10.0 mi SSW 16.1 mph 20.7 mph N/A   Clear
4:35 PM 64.4 °F - 32.0 °F 30% 30.21 in 10.0 mi South 11.5 mph 19.6 mph N/A   Clear
4:55 PM 64.4 °F - 32.0 °F 30% 30.20 in 10.0 mi South 12.7 mph 16.1 mph N/A   Clear
5:15 PM 64.4 °F - 32.0 °F 30% 30.19 in 10.0 mi SSW 11.5 mph - N/A   Clear
5:35 PM 64.4 °F - 32.0 °F 30% 30.18 in 10.0 mi SW 10.4 mph 18.4 mph N/A   Clear
5:55 PM 64.4 °F - 32.0 °F 30% 30.18 in 10.0 mi SSW 10.4 mph 17.3 mph N/A   Clear
6:15 PM 62.6 °F - 32.0 °F 32% 30.18 in 10.0 mi SSW 11.5 mph 18.4 mph N/A   Clear
6:35 PM 62.6 °F - 32.0 °F 32% 30.18 in 10.0 mi SW 10.4 mph - N/A   Clear
6:55 PM 62.6 °F - 32.0 °F 32% 30.18 in 10.0 mi SSW 9.2 mph - N/A   Clear
7:15 PM 60.8 °F - 32.0 °F 34% 30.18 in 10.0 mi Calm Calm - N/A   Clear
7:35 PM 59.0 °F - 32.0 °F 36% 30.18 in 10.0 mi SSW 6.9 mph - N/A   Clear
7:55 PM 55.4 °F - 32.0 °F 41% 30.19 in 10.0 mi SSW 5.8 mph - N/A   Clear
8:15 PM 55.4 °F - 32.0 °F 41% 30.18 in 10.0 mi Calm Calm - N/A   Clear
8:35 PM 53.6 °F - 32.0 °F 44% 30.18 in 10.0 mi South 6.9 mph - N/A   Clear
8:55 PM 53.6 °F - 32.0 °F 44% 30.18 in 10.0 mi Calm Calm - N/A   Clear
9:15 PM 53.6 °F - 32.0 °F 44% 30.18 in 10.0 mi Calm Calm - N/A   Clear
9:35 PM 53.6 °F - 32.0 °F 44% 30.18 in 10.0 mi Calm Calm - N/A   Clear
9:55 PM 53.6 °F - 32.0 °F 44% 30.19 in 10.0 mi Calm Calm - N/A   Clear
10:15 PM 51.8 °F - 32.0 °F 47% 30.21 in 10.0 mi Calm Calm - N/A   Clear
10:35 PM 51.8 °F - 32.0 °F 47% 30.20 in - Calm Calm - N/A   Clear
10:55 PM 48.2 °F - 32.0 °F 54% 30.20 in 10.0 mi Calm Calm - N/A   Clear
11:15 PM 46.4 °F 43.5 °F 32.0 °F 57% 30.20 in 10.0 mi South 5.8 mph - N/A   Clear
11:35 PM 46.4 °F 42.4 °F 33.8 °F 62% 30.19 in 10.0 mi SSE 8.1 mph - N/A   Clear
11:55 PM 50.0 °F - 37.4 °F 62% 30.18 in 10.0 mi Calm Calm - N/A   Scattered Clouds